TimeEST,TemperatureF,Dew PointF,Humidity,Sea Level PressureIn,VisibilityMPH,Wind Direction,Wind SpeedMPH,Gust SpeedMPH,PrecipitationIn,Events,Conditions,WindDirDegrees,DateUTC
12:53 AM,44.1,18.0,35,30.00,10.0,Calm,Calm,-,N/A,,Scattered Clouds,0,2013-03-05 05:53:00
2:53 AM,39.0,23.0,53,29.99,10.0,Calm,Calm,-,N/A,,Clear,0,2013-03-05 07:53:00
3:53 AM,37.0,28.0,70,29.98,10.0,Calm,Calm,-,N/A,,Clear,0,2013-03-05 08:53:00
4:53 AM,37.9,25.0,60,29.97,10.0,NNE,3.5,-,N/A,,Clear,30,2013-03-05 09:53:00
5:53 AM,37.9,28.0,68,29.96,10.0,Calm,Calm,-,N/A,,Clear,0,2013-03-05 10:53:00
6:53 AM,39.0,24.1,55,29.96,10.0,Calm,Calm,-,N/A,,Scattered Clouds,0,2013-03-05 11:53:00
8:53 AM,43.0,26.1,51,29.96,10.0,Calm,Calm,-,0.00,Rain,Light Rain,0,2013-03-05 13:53:00
9:53 AM,39.0,34.0,82,29.96,4.0,NNE,3.5,-,0.04,Rain,Light Rain,20,2013-03-05 14:53:00
10:53 AM,39.0,34.0,82,29.94,9.0,Calm,Calm,-,0.06,Rain,Light Rain,0,2013-03-05 15:53:00
11:53 AM,39.9,36.0,86,29.92,10.0,Calm,Calm,-,0.02,,Overcast,0,2013-03-05 16:53:00
12:49 PM,41.0,37.4,87,29.90,6.0,Calm,Calm,-,0.00,Rain,Light Rain,0,2013-03-05 17:49:00
12:53 PM,41.0,37.0,86,29.88,7.0,North,3.5,-,0.00,Rain,Light Rain,360,2013-03-05 17:53:00
1:53 PM,42.1,37.0,82,29.85,10.0,Calm,Calm,-,0.01,Rain,Light Rain,0,2013-03-05 18:53:00
2:13 PM,42.8,37.4,81,29.86,9.0,Calm,Calm,-,0.00,Rain,Light Rain,0,2013-03-05 19:13:00
2:53 PM,43.0,39.0,86,29.83,8.0,NNE,3.5,-,0.00,Rain,Light Rain,20,2013-03-05 19:53:00
3:32 PM,42.8,39.2,87,29.83,2.0,NNE,5.8,-,0.00,Rain,Light Rain,20,2013-03-05 20:32:00
3:53 PM,42.1,39.0,89,29.80,2.0,NNE,4.6,-,0.00,,Overcast,30,2013-03-05 20:53:00
4:32 PM,42.8,39.2,87,29.78,2.0,NNE,5.8,-,N/A,,Overcast,30,2013-03-05 21:32:00
4:39 PM,42.8,39.2,87,29.77,1.2,NE,4.6,-,N/A,,Overcast,40,2013-03-05 21:39:00
4:53 PM,42.1,39.9,92,29.75,1.8,ENE,6.9,-,N/A,,Overcast,60,2013-03-05 21:53:00
5:02 PM,42.8,39.2,87,29.76,2.0,NE,5.8,-,N/A,,Overcast,40,2013-03-05 22:02:00
5:17 PM,42.8,39.2,87,29.74,1.5,NE,6.9,-,0.01,Rain,Light Rain,50,2013-03-05 22:17:00
5:53 PM,42.1,39.9,92,29.69,1.2,ENE,9.2,-,0.01,,Overcast,60,2013-03-05 22:53:00
6:23 PM,42.8,39.2,87,29.69,2.0,NNE,6.9,-,0.03,Rain,Rain,20,2013-03-05 23:23:00
6:34 PM,42.8,39.2,87,29.70,1.5,North,6.9,-,0.09,Rain,Heavy Rain,350,2013-03-05 23:34:00
6:53 PM,42.1,39.9,92,29.70,1.2,NW,10.4,-,0.23,Rain,Heavy Rain,320,2013-03-05 23:53:00
7:34 PM,41.0,39.2,93,29.69,2.5,North,4.6,-,0.18,Rain,Light Rain,350,2013-03-06 00:34:00
7:41 PM,41.0,39.2,93,29.68,5.0,NE,6.9,-,0.19,Rain,Light Rain,50,2013-03-06 00:41:00
7:53 PM,41.0,39.0,93,29.64,7.0,NNE,4.6,-,0.19,Rain,Light Rain,30,2013-03-06 00:53:00
8:10 PM,39.2,39.2,100,29.68,6.0,NW,9.2,-,0.00,Rain,Light Rain,320,2013-03-06 01:10:00
8:38 PM,39.2,37.4,93,29.64,10.0,ENE,6.9,-,0.00,Rain,Light Rain,60,2013-03-06 01:38:00
8:53 PM,41.0,39.0,93,29.62,9.0,ESE,3.5,-,0.00,,Overcast,120,2013-03-06 01:53:00
9:11 PM,39.2,39.2,100,29.62,6.0,Calm,Calm,-,N/A,,Overcast,0,2013-03-06 02:11:00
9:53 PM,39.9,37.9,93,29.61,4.0,NW,8.1,-,N/A,,Overcast,320,2013-03-06 02:53:00
10:07 PM,39.2,37.4,93,29.65,4.0,NW,13.8,-,0.01,Rain,Light Rain,310,2013-03-06 03:07:00
10:20 PM,41.0,39.2,93,29.62,3.0,Calm,Calm,-,0.03,Rain,Heavy Rain,0,2013-03-06 03:20:00
10:32 PM,41.0,39.2,93,29.62,4.0,Calm,Calm,-,0.04,Rain,Light Rain,0,2013-03-06 03:32:00
10:53 PM,39.9,39.0,97,29.61,5.0,NNW,3.5,-,0.05,Rain,Light Rain,330,2013-03-06 03:53:00
11:53 PM,39.9,37.9,93,29.60,6.0,NW,4.6,-,0.00,,Overcast,320,2013-03-06 04:53:00